Location: Mainz-Finthen
(49.9906°N, 8.1713°E)
Time: 09:04:25
(UTC+00:00)

Envisat - Pass Details

Date: 02 October 2021
Orbit: 764 x 766 km, 98.2° (Epoch: 22 October)

Event Time Altitude Azimuth Distance (km) Brightness Sun altitude
Rises 02:56:33 0° 33° (NNE) 3,242 7.2 -24.6°
Reaches altitude 10° 03:01:41 10° 78° (ENE) 2,306 6.5 -23.9°
Maximum altitude 03:02:08 10° 83° (E) 2,297 6.4 -23.8°
Drops below altitude 10° 03:02:36 10° 88° (E) 2,305 6.4 -23.8°
Sets 03:07:42 0° 133° (SE) 3,221 6.5 -23.0°
